Weather History for Ann Arbor, MI

Change the Weather History Date:

Thursday, October 3, 2013

  Actual Average Record
Temperature  
Mean Temperature 63 °F -  
Max Temperature 75 °F 63 °F 84 °F (2005)
Min Temperature 51 °F 36 °F 26 °F (2004)
Degree Days  
Heating Degree Days 2    
Growing Degree Days 13 (Base 50)    
Moisture  
Dew Point 61 °F    
Average Humidity 84    
Maximum Humidity 100    
Minimum Humidity 69    
Precipitation  
Precipitation 0.00 in - - ()
Sea Level Pressure  
Sea Level Pressure 30.00 in    
Wind  
Wind Speed 3 mph (SSW)    
Max Wind Speed 14 mph    
Max Gust Speed 21 mph    
Visibility 8 miles    
Events Fog , Rain    
Averages and records for this station are not official NWS values.
T = Trace of Precipitation, MM = Missing Value Source: NWS Daily Summary

Daily Weather History Graph

Daily Weather History Graph

Search for Another Location

Airport:

Trip Planner

Search our weather history database for the weather conditions in past years. The results will help you decide how hot, cold, wet, or windy it might be!

Date:

Astronomy

Oct. 03, 2013 Rise Set
Actual Time 7:34 AM EDT 7:12 PM EDT
Civil Twilight 7:06 AM EDT 7:40 PM EDT
Nautical Twilight 6:34 AM EDT 8:12 PM EDT
Astronomical Twilight 6:01 AM EDT 8:45 PM EDT
Moon 6:05 AM EDT (10/3) 6:21 PM EDT (10/3)
Length of Visible Light 12h 34m
Length of Day
11h 38m
Waning Crescent, 2% of the Moon is Illuminated
Oct 3
Waning Crescent
Oct 4
New
Oct 11
First Quarter
Oct 18
Full
Oct 26
Last Quarter

Hourly Weather History & Observations

Time (EDT) Temp. Dew Point Humidity Pressure Visibility Wind Dir Wind Speed Gust Speed Precip Events Conditions
12:53 AM 51.1 °F 48.9 °F 92% 30.06 in 10.0 mi Calm Calm - N/A   Clear
1:53 AM 52.0 °F 50.0 °F 93% 30.05 in 10.0 mi NE 3.5 mph - N/A   Mostly Cloudy
2:53 AM 57.0 °F 52.0 °F 83% 30.04 in 10.0 mi ENE 3.5 mph - N/A   Overcast
3:53 AM 57.0 °F 51.1 °F 81% 30.03 in 10.0 mi NE 3.5 mph - N/A   Partly Cloudy
4:53 AM 55.9 °F 51.1 °F 84% 30.03 in 10.0 mi NE 3.5 mph - N/A   Scattered Clouds
5:53 AM 57.0 °F 52.0 °F 83% 30.02 in 10.0 mi NE 3.5 mph - N/A   Clear
6:53 AM 55.9 °F 52.0 °F 87% 30.04 in 10.0 mi Calm Calm - N/A   Overcast
7:53 AM 55.0 °F 52.0 °F 89% 30.04 in 10.0 mi Calm Calm - N/A   Scattered Clouds
8:53 AM 61.0 °F 55.9 °F 83% 30.04 in 10.0 mi Calm Calm - N/A   Overcast
9:17 AM 62.6 °F 57.2 °F 82% 30.04 in 10.0 mi Calm Calm - N/A   Overcast
9:40 AM 64.4 °F 57.2 °F 77% 30.05 in 10.0 mi Calm Calm - N/A   Overcast
9:53 AM 66.0 °F 59.0 °F 78% 30.04 in 10.0 mi Calm Calm - N/A   Mostly Cloudy
10:25 AM 68.0 °F 62.6 °F 83% 30.04 in 7.0 mi SSE 3.5 mph - N/A   Scattered Clouds
10:53 AM 68.0 °F 62.1 °F 81% 30.04 in 7.0 mi Calm Calm - N/A   Scattered Clouds
11:01 AM 68.0 °F 62.6 °F 83% 30.04 in 7.0 mi North - - N/A   Scattered Clouds
11:09 AM 69.8 °F 62.6 °F 78% 30.04 in 7.0 mi SSE 5.8 mph - N/A   Scattered Clouds
11:53 AM 70.0 °F 63.0 °F 78% 30.03 in 7.0 mi SSW 5.8 mph - N/A   Overcast
12:25 PM 69.8 °F 62.6 °F 78% 30.02 in 6.0 mi SSW 8.1 mph - 0.00 in Rain Light Rain
12:53 PM 71.1 °F 64.0 °F 78% 30.01 in 7.0 mi South 8.1 mph - 0.00 in   Mostly Cloudy
1:53 PM 73.9 °F 66.0 °F 76% 29.99 in 10.0 mi SSW 12.7 mph 18.4 mph N/A   Mostly Cloudy
2:04 PM 75.2 °F 66.2 °F 73% 29.99 in 10.0 mi SW 10.4 mph - N/A   Mostly Cloudy
2:53 PM 75.0 °F 66.0 °F 73% 29.97 in 10.0 mi SW 10.4 mph - N/A   Overcast
3:35 PM 75.2 °F 66.2 °F 73% 29.97 in 10.0 mi WSW 12.7 mph - N/A   Overcast
3:53 PM 75.0 °F 64.9 °F 71% 29.96 in 10.0 mi WSW 13.8 mph 20.7 mph N/A   Overcast
4:06 PM 75.2 °F 66.2 °F 73% 29.96 in 10.0 mi SW 9.2 mph - N/A   Mostly Cloudy
4:41 PM 75.2 °F 64.4 °F 69% 29.95 in 10.0 mi SW 10.4 mph - N/A   Mostly Cloudy
4:53 PM 75.9 °F 64.9 °F 69% 29.94 in 10.0 mi SW 11.5 mph - N/A   Scattered Clouds
5:14 PM 75.2 °F 64.4 °F 69% 29.95 in 10.0 mi WSW 9.2 mph - N/A   Mostly Cloudy
5:22 PM 75.2 °F 64.4 °F 69% 29.95 in 10.0 mi SW 6.9 mph - N/A   Mostly Cloudy
5:53 PM 73.9 °F 64.9 °F 73% 29.95 in 10.0 mi WSW 8.1 mph - N/A   Mostly Cloudy
6:53 PM 73.9 °F 64.9 °F 73% 29.94 in 10.0 mi Calm Calm - N/A   Scattered Clouds
7:53 PM 66.0 °F 64.9 °F 96% 29.95 in 10.0 mi Calm Calm - N/A   Clear
8:53 PM 64.9 °F 63.0 °F 93% 29.97 in 6.0 mi Calm Calm - N/A   Overcast
9:31 PM 62.6 °F 62.6 °F 100% 29.97 in 2.0 mi South 3.5 mph - N/A   Clear
9:41 PM 64.4 °F 62.6 °F 94% 29.98 in 5.0 mi Calm Calm - N/A   Clear
9:53 PM 64.9 °F 63.0 °F 93% 29.97 in 9.0 mi Calm Calm - N/A   Scattered Clouds
10:25 PM 62.6 °F 60.8 °F 94% 29.98 in 1.5 mi Calm Calm - N/A   Clear
10:32 PM 62.6 °F 60.8 °F 94% 29.98 in 1.0 mi Calm Calm - N/A   Clear
10:42 PM 60.8 °F 60.8 °F 100% 29.98 in 0.5 mi Calm Calm - N/A Fog Fog
10:53 PM 61.0 °F 60.1 °F 97% 29.97 in 0.2 mi Calm Calm - N/A Fog Fog
11:01 PM 60.8 °F 60.8 °F 100% 29.97 in 0.2 mi Calm Calm - N/A Fog Fog
11:21 PM 60.8 °F 59.0 °F 94% 29.98 in 1.2 mi South 4.6 mph - N/A   Partly Cloudy
11:25 PM 62.6 °F 60.8 °F 94% 29.97 in 2.0 mi South 4.6 mph - N/A   Partly Cloudy
11:33 PM 64.4 °F 64.4 °F 100% 29.98 in 8.0 mi South 3.5 mph - N/A   Clear